This demonstration page uses our WeatherBlox Daily Observations layout. Learn more.

Left ArrowRight Arrow

39.08367, -84.50855

Hourly Observations for January 8, 2018

Temp ( °F °C ) Dew Point ( °F °C ) Humidity (%) Winds ( mph kmh ) Pressure ( in mb ) Visibility ( mi km ) Precip ( " mm )
12:53 am 00:53 Cloudy with Light Rain 34 1.1 24 -4.4 67 67 SSW 8 13 30.12 1020 10 16.0934 0 0.0254
1:53 am 01:53 Cloudy with Light Rain 34 1.1 29 -1.7 82 82 S 7 11 30.09 1019 10 16.0934 0.01 0.254
2:53 am 02:53 Cloudy with Light Rain 35 1.7 29 -1.7 78 78 SSW 5 7 30.08 1019 10 16.0934 0 0.0254
3:53 am 03:53 Cloudy with Light Rain 34 1.1 30 -1.1 85 85 SW 8 13 30.11 1020 6 9.65604 0.03 0.762
4:53 am 04:53 Cloudy with Light Rain 34 1.1 31 -0.6 89 89 SSW 7 11 30.11 1020 8 12.87472 0.03 0.762
5:53 am 05:53 Cloudy with Light Rain 33 0.6 32 0 96 96 SSW 6 9 30.12 1020 7 11.26538 0.02 0.508
6:26 am 06:26 Cloudy with Light Rain 33 0.6 32 0 96 96 SW 5 7 30.15 1021 5 8.0467 0.02 0.508
6:53 am 06:53 Cloudy with Light Rain 33 0.6 32 0 96 96 S 7 11 30.13 1020 5 8.0467 0.04 1.016
7:15 am 07:15 Cloudy with Light Rain 33 0.6 32 0 96 96 SSW 7 11 30.15 1021 6 9.65604 0.01 0.254
7:46 am 07:46 Cloudy with Light Rain 34 1.1 32 0 92 92 SSW 10 17 30.12 1020 7 11.26538 0.02 0.508
7:53 am 07:53 Cloudy with Light Rain 34 1.1 32 0 92 92 SSW 12 19 30.12 1020 4 6.43736 0.02 0.508
8:53 am 08:53 Cloudy with Light Rain 35 1.7 32 0 89 89 SSW 16 26 30.14 1021 8 12.87472 0 0.0254
9:53 am 09:53 Cloudy with Light Rain 35 1.7 33 0.6 93 93 SW 14 22 30.16 1021 4 6.43736 0.02 0.508
10:53 am 10:53 Cloudy 36 2.2 34 1.1 93 93 SW 14 22 30.16 1021 9 14.48406 0 0.0254
11:53 am 11:53 Cloudy 37 2.8 35 1.7 93 93 SSW 16 26 30.13 1020 10 16.0934 0 0
12:53 pm 12:53 Cloudy 38 3.3 35 1.7 89 89 SW 8 13 30.11 1020 10 16.0934 0 0
1:53 pm 13:53 Cloudy 38 3.3 36 2.2 93 93 SW 7 11 30.1 1019 9 14.48406 0 0
2:53 pm 14:53 Cloudy 38 3.3 37 2.8 97 97 SW 6 9 30.11 1020 8 12.87472 0 0
3:53 pm 15:53 Cloudy with Mist and Fog 39 3.9 37 2.8 93 93 SW 7 11 30.12 1020 6 9.65604 0 0
4:53 pm 16:53 Cloudy with Mist and Fog 38 3.3 37 2.8 97 97 SW 5 7 30.14 1021 6 9.65604 0 0
5:53 pm 17:53 Cloudy 38 3.3 37 2.8 97 97 SSW 7 11 30.16 1021 7 11.26538 0 0
6:53 pm 18:53 Cloudy with Mist and Fog 38 3.3 37 2.8 97 97 SW 6 9 30.19 1022 6 9.65604 0 0
7:53 pm 19:53 Cloudy with Mist and Fog 37 2.8 37 2.8 100 100 SSW 5 7 30.2 1023 5 8.0467 0 0
8:44 pm 20:44 Cloudy with Mist and Fog 38 3.3 37 2.8 97 97 SSW 3 6 30.21 1023 6 9.65604 0 0
8:53 pm 20:53 Cloudy 38 3.3 36 2.2 93 93 WSW 8 13 30.21 1023 7 11.26538 0 0
9:53 pm 21:53 Cloudy 38 3.3 36 2.2 93 93 W 6 9 30.22 1024 10 16.0934 0 0
10:00 pm 22:00 Cloudy 38 3.3 36 2.2 93 93 WSW 7 11 30.21 1023 7 11.26538 0 0
10:53 pm 22:53 Cloudy 38 3.3 35 1.7 89 89 SW 7 11 30.23 1024 10 16.0934 0 0
11:53 pm 23:53 Cloudy 37 2.8 35 1.7 93 93 WSW 8 13 30.23 1024 10 16.0934 0 0

Powered by AerisWeather